Погода в Чонджу

Южная Корея     35°49′44″N   127°08′49″E
темп.,
°C
ветер,
м/с
пор.,
м/с
влажн.,
%
обл.,
%
осадки,
мм/ч
давл.,
гПа
погр.,
м
19 сентября, вс
вс1900:00+17вюв21914 0.0 101718
03:00+17вюв119329 0.0 101613
06:00+16в119416 0.0 101612
09:00+22всв11745 0.0 1017355
12:00+27ссз11513 0.0 10151535
15:00+27зсз224839 0.0 10141729
18:00+22сз11737 0.1 101515
21:00+19вюв11820 0.1 101615
20 сентября, пн
пн2000:00+17юв21830 0.0 101520
03:00+16вюв21890 0.0 101421
06:00+15вюв21920 0.0 101520
09:00+20юв13650 0.0 1014388
12:00+25ююв35520 0.0 10121207
15:00+26ююв4552100 0.0 10101448
18:00+22юв2578100 0.0 1010176
21:00+18юв35930 0.0 1010155
21 сентября, вт
вт2100:00+18вюв289525 0.0 1010273
03:00+19вюв2593100 1.2 1008169
06:00+19ююв2399100 15.0 1007124
09:00+19сз1499100 41.6 1009327
12:00+23з127882 0.5 1007705
15:00+24з347348 0.9 1006915
18:00+20з22900 0.4 100768
21:00+18ююв11970 0.4 100812
22 сентября, ср
ср2200:00+17ююв229812 0.0 100850
03:00+16ююв249936 0.1 1008109
06:00+16ююв249997 1.0 1008110
09:00+19ю3793100 4.6 1008429
12:00+21зюз478996 2.9 1008733
15:00+21з587633 4.3 10081112
18:00+18з388713 0.4 1009547
21:00+15ююз119730 0.8 101116
23 сентября, чт
чт2300:00+16юз239764 0.8 1011115
03:00+16юз249894 1.9 1011183
06:00+16зсз279498 0.9 1012302
09:00+18сз378717 1.3 1014799
12:00+19зсз477597 0.3 10151117
15:00+21сз467068 0.4 10151173
18:00+18зсз368687 0.0 1016271
21:00+15зсз009540 0.1 101811